Regional Weather Roundup
Issued by NWS

Home | Current Version | Previous Version | Graphics & Text | Print | Product List | Glossary On
Versions: 1 2 3 4 5 6 7 8 9 10 11 12 13 14 15 16 17 18 19 20 21 22 23 24 25 26 27 28 29 30 31 32 33 34 35 36 37 38 39 40 41 42 43 44 45 46 47 48 49 50
000
ASUS44 KMEG 041610
RWRTN
TENNESSEE HOURLY STATE WEATHER ROUNDUP
NATIONAL WEATHER SERVICE MEMPHIS TN
1000 AM CST WED MAR 04 2015

TNZ002-004-019-021-049-052-054-088>092-041700-
WEST TENNESSEE

CITY           SKY/WX    TMP DP  RH WIND       PRES   REMARKS
MEMPHIS INTL   LGT RAIN  47  44  90 N13       29.94R VSB 3/4
NWS MEMPHIS      N/A     47 N/A N/A MISG        N/A
JACKSON        CLOUDY    49  46  90 N12       29.95S
DYERSBURG      CLOUDY    39  27  60 N12G22    30.02R WCI  32
UNION CITY     CLOUDY    36  36 100 N13       30.02R WCI  27
PARIS          CLOUDY    37  36  93 N16       30.01R WCI  28
LEXINGTON      CLOUDY    52  50  93 N10       29.91F
SAVANNAH       CLOUDY    64  64 100 SW9       29.89F
$$

TNZ008-025-027-028-033-062-065-066-041700-
NORTH MIDDLE TENNESSEE

CITY           SKY/WX    TMP DP  RH WIND       PRES   REMARKS
NASHVILLE      LGT RAIN  52  51  97 N3        29.94R VSB 1
CLARKSVILLE    CLOUDY    42  40  92 N16       29.98R FOG
SMYRNA         HVY RAIN  52  52 100 N9        29.94R FOG
COOKEVILLE     CLOUDY    52  52 100 N5        29.89S
CROSSVILLE     CLOUDY    61  58  90 S7G20     29.91F
$$

TNZ061-075-076-078-094-096-097-041700-
SOUTH MIDDLE TENNESSEE

CITY           SKY/WX    TMP DP  RH WIND       PRES   REMARKS
FAYETTEVILLE   CLOUDY    64  63  94 SW12        N/A
TULLAHOMA      CLOUDY    64  61  88 SW17      29.92F
WINCHESTER     CLOUDY    68  61  77 SW13G26   29.93F
MCMINNVILLE    CLOUDY    64  64 100 SW13      29.89S
COLUMBIA         N/A    N/A N/A N/A N6        29.90R
SHELBYVILLE    CLOUDY    66  64  94 S17       29.90S
$$

TNZ017-018-042-046-047-041700-
NORTHEAST TENNESSEE

CITY           SKY/WX    TMP DP  RH WIND       PRES   REMARKS
TRI CITIES     CLOUDY    57  56  96 CALM      29.91F
ELIZABETHTON   CLOUDY    61  57  88 VRB3      29.90F
$$

TNZ012-013-036-069-073-074-041700-
CENTRAL EAST TENNESSEE

CITY           SKY/WX    TMP DP  RH WIND       PRES   REMARKS
KNOXVILLE      PTSUNNY   67  59  75 SW28G39   29.91F
OAK RIDGE      CLOUDY    64  59  83 SW9G24    29.91F
GATLINBURG     MOSUNNY   72  55  56 SW17G32   29.90S
MORRISTOWN     MOSUNNY   68  59  73 SW20      29.90F
$$

TNZ083-085-099-041700-
SOUTHEAST TENNESSEE

CITY           SKY/WX    TMP DP  RH WIND       PRES   REMARKS
CHATTANOOGA    CLOUDY    65  60  84 S15G22    29.95F
$$

SKY/WX REPORTED AS FAIR MEANS FEW OR NO CLOUDS BELOW
12 THOUSAND FEET.




USA.gov is the U.S. government's official web portal to all federal, state and local government web resources and services.